Weather in Molebka

Russia / Perm Krai     57°14′14″N   57°56′11″E
temp.,
°C
wind,
m/s
gust,
m/s
humid.,
%
clouds,
%
prec.,
mm/h
press.,
hPa
HPBL,
m
13 august, sat
sat1323:00+15wsw312808 0.0 1016370
02:00+15wsw4127799 0.0 1015420
05:00+14w31191100 0.2 1015406
08:00+16w39893 0.1 1015489
11:00+20wnw610585 0.2 10141524
14:00+21nw69430 0.0 10151918
17:00+21nw59431 0.0 10162089
20:00+16nnw39560 0.0 1017390
14 august, sun
sun1423:00+11nw11710 0.0 101911
02:00+9nw11791 0.0 102010
05:00+8wsw118237 0.0 102115
08:00+12wnw246797 0.0 1021208
11:00+17nw35518 0.0 1021703
14:00+20nw453871 0.0 10202396
17:00+19nw255098 0.0 1020547
20:00+16n236353 0.0 102179
15 august, mon
mon1523:00+11ne016496 0.0 102210
02:00+13nnw11566 0.0 102111
05:00+9nw00721 0.0 102310
08:00+13n13675 0.0 1023183
11:00+18nnw344548 0.0 10231201
14:00+20nnw45365 0.0 10231659
17:00+19nnw45360 0.0 10231640
20:00+14n22640 0.0 102423
16 august, tue
tue1623:00+10nne11700 0.0 102511
02:00+9nne11750 0.0 102510
05:00+8w11780 0.0 102610
08:00+12w136550 0.0 1026165
11:00+18wnw365046 0.0 1025635
14:00+21nw484821 0.0 10241879
17:00+22nnw574428 0.0 10231976
20:00+16nw3960100 0.0 1023264
17 august, wed
wed1723:00+11nnw227713 0.0 102515
02:00+9nnw11764 0.0 102614
05:00+7nnw11780 0.0 102710
08:00+11nnw246311 0.0 1027204
11:00+17nnw364230 0.0 1026914
14:00+20nw353911 0.0 10241311
17:00+16nnw245999 0.0 1023239
20:00+14e007770 0.1 102211